Torna al catalogo

HULIANWANG DIGUI-178

AttivoScienzaLEO
NORAD 100203·PAYLOAD·🇨🇳 China

Lanciato Aug 4, 2026 da Wenchang Space Launch Site

Loading…

Prossimi Passaggi (prossime 24 ore)

TLE

AggiornatoSource: Space-Track

Epoca: Sep 14, 2026, 13:19 UTC

1 A0203U 26176A   26257.55515907 -.00000088  00000-0  77086-4 0  9995
2 A0203  49.9876 245.5576 0000236 354.1396   5.9473 13.29328240  5508

Traccia HULIANWANG DIGUI-178 in tempo reale con AllMySat

Download on the App Store